Regional Weather Roundup
Issued by NWS

Home | Current Version | Previous Version | Text Only | Print | Product List | Glossary Off
Versions: 1 2 3 4 5 6 7 8 9 10 11 12 13 14 15 16 17 18 19 20 21 22 23 24 25 26 27 28 29 30 31 32 33 34 35 36 37 38 39 40 41 42 43 44 45 46 47 48 49 50

000
ASUS45 KBOU 202110
RWRCO

WEATHER ROUNDUP FOR COLORADO
NATIONAL WEATHER SERVICE DENVER/BOULDER CO
300 PM MDT SUN MAY 20 2018

NOTE: "FAIR" INDICATES FEW OR NO CLOUDS BELOW 12000 FEET WITH NO
SIGNIFICANT WEATHER AND/OR OBSTRUCTIONS TO VISIBILITY.

COZ001>005-013-030-031-202200-
...NORTHWEST COLORADO...

CITY           SKY/WX    TMP DP  RH WIND       PRES   REMARKS
CRAIG          LGT RAIN  64  41  42 S10G20    30.06S
HAYDEN         FAIR      57  37  47 S20G25    30.12R
MEEKER         FAIR      66  41  40 SE6       30.04F
RANGELY        FAIR      76  30  18 NW7       29.96F
RABBIT EARS PA CLOUDY    39  32  75 SW8G18    30.33R THUNDER
STEAMBOAT SPGS FAIR      59  40  49 S9        30.12R
WALDEN         FAIR      59  28  31 N12       30.15S
$$

COZ006>008-011-202200-
...WEST CENTRAL VALLEYS...

CITY           SKY/WX    TMP DP  RH WIND       PRES   REMARKS
GRAND JUNCTION FAIR      77  37  23 SW10      29.92S
MONTROSE       CLOUDY    63  32  31 SW16G32   30.08S
EAGLE          PTSUNNY   69  28  21 W22G33    30.07R
RIFLE          FAIR      74  32  21 S8        29.97F
DELTA          PTSUNNY   73  28  18 S23G40    30.00R
NUCLA          LGT RAIN  63  34  34 E18G36    30.12R
$$

COZ017>023-064>068-202200-
...SOUTHWEST COLORADO...

CITY           SKY/WX    TMP DP  RH WIND       PRES   REMARKS
DURANGO        FAIR      78  14   9 S18G35    30.04F
CORTEZ         FAIR      81  10   7 SW20G29   29.99F
PAGOSA SPRINGS PTSUNNY   69  18  14 SW8       30.13F
TELLURIDE      PTSUNNY   56  23  27 CALM      30.24S
WOLF CREEK PAS FAIR      43  23  45 S20G28    30.41S
$$

COZ009-010-012-014-032>034-037-058>063-202200-
...CENTRAL COLORADO...

CITY           SKY/WX    TMP DP  RH WIND       PRES   REMARKS
ASPEN          PTSUNNY   63  21  20 NW9       30.11R
BUENA VISTA    FAIR      60  29  31 SE18      30.14F
COPPER MTN     CLOUDY    41  25  52 W9G32     30.36S
BERTHOUD PASS  MIX PCPN  34  25  69 SE8G20    30.37F WCI  27
COTTONWOOD PAS PTSUNNY   59  36  41 SE8       30.24S
GUNNISON       PTSUNNY   62  26  25 SW13G20   30.12R
GRANBY         MOCLDY    60  33  36 N15       30.13S
KREMMLING      CLOUDY    63  32  31 NW17G23   30.13R
LEADVILLE      FAIR      57  22  25 NW12G21   30.20F
MONARCH PASS   CLOUDY    41  23  48 MISG      30.48S
SALIDA         FAIR      60  37  43 SE14G23   30.21S
SUNLIGHT       FAIR      50  21  32 W7        30.31F
WILKERSON PASS FAIR      43  37  81 S12G20    30.35F THUNDER
$$

COZ069>075-202200-
...SAN LUIS VALLEY/SANGRE DE CRISTO MOUNTAINS...

CITY           SKY/WX    TMP DP  RH WIND       PRES   REMARKS
ALAMOSA        CLOUDY    60  36  40 N10G24    30.11F
DEL NORTE      PTSUNNY   59  31  34 SE6       30.16F
LA VETA PASS   CLOUDY    43  36  75 E7        30.41F THUNDER
SAGUACHE       NOT AVBL
$$

COZ035-036-038>040-202200-
...NORTHERN COLORADO FRONT RANGE...

CITY           SKY/WX    TMP DP  RH WIND       PRES   REMARKS
DENVER INTL AP CLOUDY    56  42  59 E9        30.15F
AURORA         CLOUDY    56  44  63 E9        30.15F
FRONT RANGE AP CLOUDY    59  45  58 E7        30.16F
ERIE MUNI ARPT CLOUDY    55  42  63 CALM      30.21F
BOULDER MUN AP CLOUDY    52  45  76 SE3       30.15F
CENTENNIAL     CLOUDY    56  44  64 NE7       30.15F
BROOMFIELD     CLOUDY    54  45  71 N8        30.17F
FORT COLLINS   CLOUDY    52  43  71 S3        30.16F
LONGMONT       PTSUNNY   61  46  58 SE7       30.16F
$$

COZ041-046-047-076>085-087-088-202200-
...PIKES PEAK/PALMER DIVIDE AND SOUTHERN FOOTHILLS...

CITY           SKY/WX    TMP DP  RH WIND       PRES   REMARKS
COLO. SPRINGS  CLOUDY    54  41  61 SE13      30.18F
A. F. ACADEMY  CLOUDY    50  42  74 S5        30.18F
SCHRIEVER AFB  NOT AVBL
CHEYENNE MTN   CLOUDY    46  46  99 S12       30.14S
ELLICOTT         N/A    N/A N/A N/A SE12G21   30.16F
FALCON         CLOUDY    52  39  61 SE10G17   30.21S
FORT CARSON    CLOUDY    58  42  54 S13       30.15F
LIMON          CLOUDY    58  40  51 SE10G20   30.16F
MONUMENT HILL  CLOUDY    50  41  71 SE9G18    30.20F
CANON CITY     CLOUDY    61  45  55 E8G20     30.14S
WALSENBURG     FAIR      57  46  67 SE9       30.15F
TRINIDAD       FAIR      60  46  59 N7        30.14F
$$

COZ042>045-048>051-090-091-202200-
...NORTHEAST COLORADO...

CITY           SKY/WX    TMP DP  RH WIND       PRES   REMARKS
GREELEY ARPT   CLOUDY    55  43  63 E3        30.17F
AKRON          CLOUDY    56  44  64 SE8       30.16F
BURLINGTON     PTSUNNY   61  44  53 E8        30.15F
WRAY           CLOUDY    59  45  58 E12       30.16F
YUMA           CLOUDY    55  27  33 SE3       30.16F
STERLING       PTSUNNY   61  43  51 E3        30.14F
HOLYOKE        FAIR      63  43  48 E9        30.16F
FORT MORGAN    FAIR      61  40  46 SE6       30.16F
$$

COZ086-089-092>099-202200-
...SOUTHEAST COLORADO...

CITY           SKY/WX    TMP DP  RH WIND       PRES   REMARKS
PUEBLO         PTSUNNY   64  43  46 VRB5      30.12F
LA JUNTA       FAIR      66  43  43 S7        30.12F
LAMAR          FAIR      70  42  36 MISG      30.10F
SPRINGFIELD      N/A     65  44  46 VRB7      30.13F
$$



USA.gov is the U.S. government's official web portal to all federal, state and local government web resources and services.